Orbital Elements at Epoch 2459200.5 (2020-Dec-17.0) TDB
Reference: JPL 34 (heliocentric ecliptic J2000)
Element | Value | Uncertainty (1-sigma) | Units |
e | .03701816780744714 | 5.2017e-08 | |
a | 5.181378965790068 | 9.6104e-08 | au |
q | 4.989573809760474 | 3.3829e-07 | au |
i | 11.88641694929145 | 3.8036e-06 | deg |
node | 83.56387059062837 | 2.6877e-05 | deg |
peri | 321.6807240018016 | 7.2788e-05 | deg |
M | 314.3765472989299 | 6.7862e-05 | deg |
tp | 2459746.449046084563 (2022-Jun-15.94904608) | 0.0008139 | TDB |
period | 4307.908432055889 11.79 | 0.00011985 3.281e-07 | d yr |
n | .08356723585886319 | 2.325e-09 | deg/d |
Q | 5.373184121819661 | 9.9662e-08 | au |
|
| | Orbit Determination Parameters
Additional Information
|